[TLELIST] Archives

 

[list_settings.list_name] Current TLEs

April 21st 2010 PST

HST 1 20580U 90037B 10110.59790984 .00000546 00000-0 28962-4 0 5530 2 20580 028.4707 255.8109 0003219 312.8116 047.2138 15.00954638896090 ISS (ZARYA) 1 25544U 98067A 10111.16400255 .00021484 00000-0 14481-3 0 145 2 25544 051.6457 163.2401 0003323 197.1713 222.7803 15.75063036654495 CXO 1 25867U 99040B 10110.91666667 .00000445 00000-0 10000-3 0 4543 2 25867 066.8584 056.3706 8071880 275.1976 003.1428 00.37803957 6177 ____________________________________________________________________ These 2-Line ...Continue Reading

[list_settings.list_name] Current TLEs

April 20th 2010 PST

HST 1 20580U 90037B 10107.87167482 .00000589 00000-0 32307-4 0 5522 2 20580 028.4703 273.6077 0003263 277.9435 082.0792 15.00952834895685 ISS (ZARYA) 1 25544U 98067A 10110.34611132 .00011535 00000-0 79980-4 0 100 2 25544 051.6458 167.4499 0003373 186.1573 273.0990 15.75008351654367 CXO 1 25867U 99040B 10110.91666667 .00000445 00000-0 10000-3 0 4543 2 25867 066.8584 056.3706 8071880 275.1976 003.1428 00.37803957 6177 ____________________________________________________________________ These 2-Line ...Continue Reading

[list_settings.list_name] Current TLEs

April 19th 2010 PST

HST 1 20580U 90037B 10107.87167482 .00000589 00000-0 32307-4 0 5522 2 20580 028.4703 273.6077 0003263 277.9435 082.0792 15.00952834895685 ISS (ZARYA) 1 25544U 98067A 10109.38621987 .00010016 00000-0 70092-4 0 20 2 25544 051.6460 172.3872 0003395 182.9618 230.0469 15.74982730654217 CXO 1 25867U 99040B 10108.25000000 .00000429 00000-0 10000-3 0 4531 2 25867 066.8554 056.4952 8065336 275.2259 000.0345 00.37798699 6161 ____________________________________________________________________ These 2-Line ...Continue Reading

[list_settings.list_name] Current TLEs

April 18th 2010 PST

HST 1 20580U 90037B 10107.87167482 .00000589 00000-0 32307-4 0 5522 2 20580 028.4703 273.6077 0003263 277.9435 082.0792 15.00952834895685 ISS (ZARYA) 1 25544U 98067A 10108.52547454 .00053790 00000-0 35617-3 0 9962 2 25544 051.6464 176.8144 0003303 182.6077 026.7640 15.74979718654074 CXO 1 25867U 99040B 10108.25000000 .00000429 00000-0 10000-3 0 4531 2 25867 066.8554 056.4952 8065336 275.2259 000.0345 00.37798699 6161 ____________________________________________________________________ These 2-Line ...Continue Reading

[list_settings.list_name] Current TLEs

April 17th 2010 PST

HST 1 20580U 90037B 10106.87427107 .00000605 00000-0 33523-4 0 5513 2 20580 028.4707 280.1181 0003225 268.0790 091.9424 15.00952157895534 ISS (ZARYA) 1 25544U 98067A 10107.36220131 .00023170 00000-0 15706-3 0 9891 2 25544 051.6467 182.7897 0004378 178.2411 271.1916 15.74874876653894 CXO 1 25867U 99040B 10108.25000000 .00000429 00000-0 10000-3 0 4531 2 25867 066.8554 056.4952 8065336 275.2259 000.0345 00.37798699 6161 ____________________________________________________________________ These 2-Line ...Continue Reading

[list_settings.list_name] Current TLEs

April 16th 2010 PST

HST 1 20580U 90037B 10105.14543683 .00000628 00000-0 35269-4 0 5503 2 20580 028.4707 291.4027 0003251 249.3702 110.6503 15.00950798895279 ISS (ZARYA) 1 25544U 98067A 10106.49061343 .00023539 00000-0 15976-3 0 9812 2 25544 051.6468 187.2710 0004409 175.1777 009.4790 15.74834943653753 CXO 1 25867U 99040B 10103.02154830 .00000000 00000-0 10000-3 0 4526 2 25867 066.8224 056.6904 8061987 275.2538 008.2411 00.37815022 6155 ____________________________________________________________________ These 2-Line ...Continue Reading

[list_settings.list_name] Current TLEs

April 15th 2010 PST

HST 1 20580U 90037B 10105.14543683 .00000628 00000-0 35269-4 0 5503 2 20580 028.4707 291.4027 0003251 249.3702 110.6503 15.00950798895279 ISS (ZARYA) 1 25544U 98067A 10105.32821753 .00000871 00000-0 10059-4 0 9757 2 25544 051.6466 193.2487 0004182 175.1461 255.0783 15.74758288653575 CXO 1 25867U 99040B 10105.58333333 .00000496 00000-0 10000-3 0 4514 2 25867 066.8431 056.6338 8063702 275.2437 356.9648 00.37806676 6151 ____________________________________________________________________ These 2-Line ...Continue Reading

[list_settings.list_name] Current TLEs

April 14th 2010 PST

HST 1 20580U 90037B 10101.02283170 .00000605 00000-0 33485-4 0 5488 2 20580 028.4705 318.3135 0003684 204.4380 155.6158 15.00946947894657 ISS (ZARYA) 1 25544U 98067A 10104.31155253 .00007621 00000-0 54973-4 0 9708 2 25544 051.6463 198.4747 0004311 168.5711 254.1810 15.74717808653413 CXO 1 25867U 99040B 10102.95833333 .00000514 00000-0 10000-3 0 4507 2 25867 066.8264 056.7808 8062381 275.2313 359.6168 00.37809612 6142 ____________________________________________________________________ These 2-Line ...Continue Reading

[list_settings.list_name] Current TLEs

April 13th 2010 PST

HST 1 20580U 90037B 10101.02283170 .00000605 00000-0 33485-4 0 5488 2 20580 028.4705 318.3135 0003684 204.4380 155.6158 15.00946947894657 ISS (ZARYA) 1 25544U 98067A 10103.49045115 .00002576 00000-0 21466-4 0 9650 2 25544 051.6478 202.6939 0004549 163.1160 281.7020 15.74666041653288 CXO 1 25867U 99040B 10102.95833333 .00000514 00000-0 10000-3 0 4507 2 25867 066.8264 056.7808 8062381 275.2313 359.6168 00.37809612 6142 ____________________________________________________________________ These 2-Line ...Continue Reading

[list_settings.list_name] Current TLEs

April 12th 2010 PST

HST 1 20580U 90037B 10101.02283170 .00000605 00000-0 33485-4 0 5488 2 20580 028.4705 318.3135 0003684 204.4380 155.6158 15.00946947894657 ISS (ZARYA) 1 25544U 98067A 10102.53575642 .00026451 00000-0 17993-3 0 9597 2 25544 051.6458 207.5948 0004888 162.1720 267.0623 15.74703539653131 CXO 1 25867U 99040B 10102.95833333 .00000514 00000-0 10000-3 0 4507 2 25867 066.8264 056.7808 8062381 275.2313 359.6168 00.37809612 6142 ____________________________________________________________________ These 2-Line ...Continue Reading
  • This mailing list is a public mailing list - anyone may join or leave, at any time.
  • This mailing list is announce-only.

International Space Station (ISS) / Hubble Space Telescope (HST) / Chandra X-Ray Observatory Orbital Data via EMAIL

Privacy Policy:

Private list